Location: Amber Place
(27.9751°N, 82.3711°W)
Time: 19:09:54
(UTC+00:00)

N. Korean satellite - Pass Details

Date: 27 September 2021
Orbit: 450 x 495 km, 97.3° (Epoch: 16 October)

Event Time Altitude Azimuth Distance (km) Brightness Sun altitude
Rises 10:29:21 0° 14° (NNE) 2,539 10.5 -12.1°
Reaches altitude 10° 10:31:25 10° 17° (NNE) 1,664 9.6 -11.7°
Maximum altitude 10:34:58 67° 101° (E) 529 7.0 -10.9°
Drops below altitude 10° 10:38:34 10° 184° (S) 1,675 9.2 -10.1°
Sets 10:40:38 0° 187° (S) 2,558 10.1 -9.6°
